Weather History for Quincy, IL

Change the Weather History Date:

Tuesday, May 6, 2014

  Actual Average Record
Temperature  
Mean Temperature 67 °F 60 °F  
Max Temperature 82 °F 70 °F 91 °F (1934)
Min Temperature 52 °F 50 °F 32 °F (1989)
Degree Days  
Heating Degree Days 0 6  
Month to date heating degree days 43 41  
Since 1 July heating degree days 6166 5471  
Cooling Degree Days 2 1  
Month to date cooling degree days 2 6  
Year to date cooling degree days 6 24  
Growing Degree Days 16 (Base 50)    
Moisture  
Dew Point 52 °F    
Average Humidity 53    
Maximum Humidity 64    
Minimum Humidity 42    
Precipitation  
Precipitation 0.00 in 0.14 in 1.65 in (2002)
Month to date precipitation T 0.80  
Year to date precipitation 6.25 10.35  
Sea Level Pressure  
Sea Level Pressure 29.72 in    
Wind  
Wind Speed 14 mph (ESE)    
Max Wind Speed 22 mph    
Max Gust Speed 27 mph    
Visibility 10 miles    
Events      
T = Trace of Precipitation, MM = Missing Value Source: NWS Daily Summary

Daily Weather History Graph

Daily Weather History Graph

Search for Another Location

Airport:

Trip Planner

Search our weather history database for the weather conditions in past years. The results will help you decide how hot, cold, wet, or windy it might be!

Date:

Astronomy

May. 06, 2014 Rise Set
Actual Time 5:58 AM CDT 8:04 PM CDT
Civil Twilight 5:29 AM CDT 8:34 PM CDT
Nautical Twilight 4:52 AM CDT 9:10 PM CDT
Astronomical Twilight 4:13 AM CDT 9:50 PM CDT
Moon 12:15 PM CDT (5/6) 1:23 AM CDT (5/6)
Length of Visible Light 15h 05m
Length of Day
14h 05m
Waxing Crescent, 46% of the Moon is Illuminated
May 6
Waxing Crescent
May 6
First Quarter
May 14
Full
May 21
Last Quarter
May 28
New

Hourly Weather History & Observations

Time (CDT) Temp. Heat Index Dew Point Humidity Pressure Visibility Wind Dir Wind Speed Gust Speed Precip Events Conditions
12:54 AM 59.0 °F - 43.0 °F 55% 29.82 in 10.0 mi East 18.4 mph 23.0 mph N/A   Clear
1:54 AM 55.9 °F - 41.0 °F 57% 29.81 in 10.0 mi East 15.0 mph - N/A   Clear
2:54 AM 54.0 °F - 41.0 °F 62% 29.81 in 10.0 mi East 13.8 mph - N/A   Clear
6:54 AM 52.0 °F - 39.9 °F 63% 29.84 in 10.0 mi East 13.8 mph - N/A   Clear
7:54 AM 53.1 °F - 39.9 °F 61% 29.83 in 10.0 mi East 13.8 mph - N/A   Clear
9:54 AM 61.0 °F - 45.0 °F 56% 29.82 in 10.0 mi ESE 18.4 mph - N/A   Clear
10:54 AM 64.9 °F - 46.0 °F 50% 29.80 in 10.0 mi ESE 12.7 mph - N/A   Clear
11:54 AM 68.0 °F - 48.0 °F 49% 29.79 in 10.0 mi ESE 16.1 mph - N/A   Clear
12:54 PM 72.0 °F - 51.1 °F 48% 29.76 in 10.0 mi ESE 15.0 mph 23.0 mph N/A   Clear
1:54 PM 75.0 °F - 52.0 °F 44% 29.73 in 10.0 mi ESE 15.0 mph - N/A   Clear
2:32 PM 75.9 °F - 52.0 °F 43% 29.72 in 2.5 mi ESE 20.7 mph 26.5 mph N/A   Haze
2:40 PM 77.0 °F - 53.1 °F 43% 29.72 in 10.0 mi ESE 16.1 mph - N/A   Clear
2:54 PM 78.1 °F - 53.1 °F 42% 29.70 in 10.0 mi ESE 18.4 mph - N/A   Clear
3:54 PM 80.1 °F 80.2 °F 55.9 °F 43% 29.68 in 10.0 mi ESE 16.1 mph 23.0 mph N/A   Clear
4:54 PM 81.0 °F 81.1 °F 57.9 °F 45% 29.66 in 10.0 mi SSE 11.5 mph 24.2 mph N/A   Clear
5:54 PM 81.0 °F 81.6 °F 60.1 °F 49% 29.64 in 10.0 mi SE 19.6 mph 25.3 mph N/A   Clear
6:54 PM 80.1 °F 80.9 °F 60.1 °F 50% 29.62 in 10.0 mi SE 16.1 mph - N/A   Clear
7:54 PM 79.0 °F - 60.1 °F 52% 29.62 in 10.0 mi SE 11.5 mph - N/A   Clear
8:54 PM 75.9 °F - 60.1 °F 58% 29.62 in 10.0 mi SE 13.8 mph - N/A   Clear
9:54 PM 75.0 °F - 59.0 °F 57% 29.62 in 10.0 mi SE 11.5 mph - N/A   Clear
10:54 PM 75.0 °F - 59.0 °F 57% 29.64 in 10.0 mi SSE 9.2 mph - N/A   Clear
11:54 PM 75.0 °F - 57.9 °F 55% 29.65 in 10.0 mi South 11.5 mph - N/A   Clear